AFL240 ULLI-UMKK

Flight info

Callsign AFL240
Flight time 0h 57m
Altitude 38000
Route UTETA1B UTETA M60 ATLUM T561 LEDUN DCT ARANS DCT PIDIN DCT PISIM DCT PIRUX DCT PIVAX DCT KEDUX DCT OTVOV DCT TURIP TURIP3G
Aircraft A359/H-SDE2E3GHIJ3J4J5LM1ORWXY/LB1D1

Departure

Time 2026-05-01 13:16
Airport Pulkovo Airport (ULLI)

Arrival

Time 2026-05-01 14:14
Airport Khrabrovo Airport (UMKK)
Time Latitude Longitude Altitude Speed Heading
2026-05-01 12:38 59.79725 30.26625 115 ft 0 kts 105°
2026-05-01 13:01 59.79731 30.26549 89 ft 4 kts 89°
2026-05-01 13:02 59.79732 30.26540 89 ft 0 kts 87°
2026-05-01 13:07 59.79732 30.26563 92 ft 3 kts 88°
2026-05-01 13:07 59.79731 30.26521 89 ft 3 kts 87°
2026-05-01 13:08 59.79729 30.26480 90 ft 3 kts 78°
2026-05-01 13:08 59.79722 30.26441 90 ft 3 kts 54°
2026-05-01 13:08 59.79707 30.26411 91 ft 3 kts 34°
2026-05-01 13:08 59.79697 30.26400 91 ft 0 kts 19°
2026-05-01 13:09 59.79692 30.26397 91 ft 0 kts 19°
2026-05-01 13:10 59.79693 30.26397 91 ft 1 kts 19°
2026-05-01 13:10 59.79718 30.26414 91 ft 7 kts 18°
2026-05-01 13:10 59.79788 30.26458 90 ft 14 kts 17°
2026-05-01 13:10 59.79904 30.26526 88 ft 20 kts 17°
2026-05-01 13:11 59.80046 30.26609 87 ft 22 kts 16°
2026-05-01 13:11 59.80202 30.26702 86 ft 24 kts 17°
2026-05-01 13:11 59.80329 30.26776 86 ft 15 kts 16°
2026-05-01 13:11 59.80375 30.26805 84 ft 0 kts 29°
2026-05-01 13:12 59.80378 30.26811 84 ft 3 kts 40°
2026-05-01 13:12 59.80387 30.26884 86 ft 8 kts 87°
2026-05-01 13:12 59.80371 30.27039 84 ft 14 kts 105°
2026-05-01 13:12 59.80339 30.27266 84 ft 20 kts 107°
2026-05-01 13:13 59.80294 30.27556 84 ft 24 kts 107°
2026-05-01 13:13 59.80242 30.27901 85 ft 27 kts 106°
2026-05-01 13:13 59.80187 30.28266 86 ft 28 kts 107°
2026-05-01 13:13 59.80143 30.28560 86 ft 21 kts 107°
2026-05-01 13:14 59.80103 30.28840 84 ft 22 kts 106°
2026-05-01 13:14 59.80060 30.29137 83 ft 23 kts 106°
2026-05-01 13:14 59.80014 30.29448 85 ft 24 kts 107°
2026-05-01 13:14 59.79965 30.29766 84 ft 21 kts 107°
2026-05-01 13:15 59.79945 30.29993 85 ft 16 kts 81°
2026-05-01 13:15 59.80010 30.30174 85 ft 17 kts 44°
2026-05-01 13:15 59.80110 30.30236 84 ft 16 kts 327°
2026-05-01 13:15 59.80160 30.30016 69 ft 25 kts 286°
2026-05-01 13:16 59.80276 30.29234 87 ft 93 kts 287°
2026-05-01 13:16 59.80523 30.27552 85 ft 156 kts 286°
2026-05-01 13:16 59.80822 30.25475 725 ft 151 kts 285°
2026-05-01 13:17 59.81756 30.19306 2793 ft 160 kts 286°
2026-05-01 13:17 59.82079 30.17153 3362 ft 169 kts 286°
2026-05-01 13:18 59.82820 30.12043 3818 ft 218 kts 286°
2026-05-01 13:18 59.83268 30.08986 4115 ft 241 kts 286°
2026-05-01 13:18 59.83749 30.05713 4648 ft 252 kts 287°
2026-05-01 13:18 59.84251 30.02296 5171 ft 257 kts 287°
2026-05-01 13:19 59.84687 29.98887 5996 ft 259 kts 281°
2026-05-01 13:19 59.84651 29.95290 6824 ft 264 kts 262°
2026-05-01 13:19 59.83810 29.88044 8370 ft 273 kts 260°
2026-05-01 13:20 59.83366 29.84336 9181 ft 278 kts 261°
2026-05-01 13:20 59.82920 29.80558 9995 ft 283 kts 261°
2026-05-01 13:20 59.82466 29.76696 10585 ft 294 kts 262°
2026-05-01 13:21 59.81484 29.68237 11237 ft 335 kts 261°
2026-05-01 13:21 59.80939 29.63591 11560 ft 354 kts 261°
2026-05-01 13:21 59.80366 29.58743 12049 ft 365 kts 261°
2026-05-01 13:21 59.79776 29.53799 12723 ft 371 kts 261°
2026-05-01 13:22 59.79371 29.50410 13184 ft 375 kts 261°
2026-05-01 13:22 59.78767 29.45349 13878 ft 380 kts 262°
2026-05-01 13:22 59.78151 29.40214 14502 ft 384 kts 262°
2026-05-01 13:22 59.77529 29.35031 15117 ft 388 kts 262°
2026-05-01 13:23 59.76559 29.26989 16120 ft 394 kts 262°
2026-05-01 13:23 59.75280 29.16452 17361 ft 402 kts 262°
2026-05-01 13:23 59.73951 29.05422 18652 ft 408 kts 264°
2026-05-01 13:23 59.73564 28.94295 19857 ft 405 kts 277°
2026-05-01 13:24 59.73854 28.83093 21056 ft 409 kts 280°
2026-05-01 13:24 59.74235 28.71900 22225 ft 417 kts 280°
2026-05-01 13:24 59.74574 28.60310 23408 ft 424 kts 279°
2026-05-01 13:25 59.75142 28.36584 25470 ft 436 kts 278°
2026-05-01 13:25 59.75409 28.24476 26469 ft 441 kts 278°
2026-05-01 13:25 59.75670 28.12256 27453 ft 447 kts 278°
2026-05-01 13:25 59.75923 27.99898 28416 ft 452 kts 278°
2026-05-01 13:26 59.76168 27.87368 29333 ft 457 kts 277°
2026-05-01 13:26 59.76389 27.75515 30131 ft 462 kts 277°
2026-05-01 13:26 59.77170 27.62945 30811 ft 458 kts 288°
2026-05-01 13:26 59.78765 27.50692 31445 ft 460 kts 290°
2026-05-01 13:27 59.80487 27.38472 32285 ft 458 kts 290°
2026-05-01 13:27 59.82195 27.26322 33211 ft 454 kts 290°
2026-05-01 13:27 59.85508 27.02201 34657 ft 452 kts 289°
2026-05-01 13:28 59.88767 26.78012 35684 ft 453 kts 289°
2026-05-01 13:28 59.90382 26.65887 36178 ft 454 kts 289°
2026-05-01 13:29 59.93591 26.41499 37106 ft 455 kts 288°
2026-05-01 13:29 59.96430 26.16842 37892 ft 464 kts 275°
2026-05-01 13:30 59.89832 25.66704 38142 ft 471 kts 265°
2026-05-01 13:31 59.87053 25.41076 38149 ft 474 kts 261°
2026-05-01 13:32 59.79181 24.77684 38151 ft 473 kts 260°
2026-05-01 13:33 59.70451 24.14730 38179 ft 474 kts 257°
2026-05-01 13:34 59.62695 23.64900 38176 ft 473 kts 257°
2026-05-01 13:35 59.56785 23.27718 38180 ft 473 kts 256°
2026-05-01 13:36 59.49033 22.91684 38181 ft 478 kts 249°
2026-05-01 13:36 59.40405 22.56383 38182 ft 478 kts 249°
2026-05-01 13:37 59.34623 22.32948 38186 ft 478 kts 248°
2026-05-01 13:37 59.28794 22.09578 38190 ft 477 kts 248°
2026-05-01 13:38 59.20004 21.74798 38194 ft 477 kts 248°
2026-05-01 13:39 59.14083 21.51673 38189 ft 477 kts 248°
2026-05-01 13:39 59.08016 21.28704 38196 ft 480 kts 242°
2026-05-01 13:39 59.03685 21.18767 38196 ft 490 kts 224°
2026-05-01 13:40 58.97789 21.11907 38200 ft 501 kts 204°
2026-05-01 13:40 58.84497 21.03328 38200 ft 505 kts 200°
2026-05-01 13:41 58.71114 20.94958 38201 ft 505 kts 201°
2026-05-01 13:41 58.57755 20.86503 38203 ft 506 kts 201°
2026-05-01 13:42 58.44365 20.78104 38214 ft 507 kts 201°
2026-05-01 13:42 58.30955 20.69764 38216 ft 507 kts 200°
2026-05-01 13:43 58.17519 20.61474 38221 ft 508 kts 200°
2026-05-01 13:43 58.04060 20.53236 38222 ft 508 kts 200°
2026-05-01 13:44 57.90590 20.45056 38227 ft 509 kts 200°
2026-05-01 13:44 57.77096 20.36926 38228 ft 509 kts 200°
2026-05-01 13:45 57.63582 20.28847 38233 ft 510 kts 199°
2026-05-01 13:45 57.50052 20.20822 38235 ft 510 kts 199°
2026-05-01 13:46 57.36503 20.12848 38238 ft 511 kts 199°
2026-05-01 13:46 57.22957 20.04938 38246 ft 511 kts 199°
2026-05-01 13:47 57.09483 19.97129 38249 ft 511 kts 199°
2026-05-01 13:47 56.95882 19.89487 38254 ft 512 kts 195°
2026-05-01 13:48 56.81999 19.83614 38258 ft 512 kts 194°
2026-05-01 13:48 56.68141 19.77611 38264 ft 512 kts 194°
2026-05-01 13:49 56.54320 19.71568 38271 ft 511 kts 194°
2026-05-01 13:49 56.40481 19.65575 38271 ft 511 kts 194°
2026-05-01 13:49 56.33597 19.62613 37872 ft 500 kts 194°
2026-05-01 13:50 56.26905 19.59780 36954 ft 494 kts 191°
2026-05-01 13:50 56.22929 19.59142 36257 ft 493 kts 177°
2026-05-01 13:50 56.19543 19.59975 35652 ft 491 kts 163°
2026-05-01 13:50 56.16362 19.62134 35031 ft 489 kts 152°
2026-05-01 13:51 56.13319 19.64896 34340 ft 491 kts 149°
2026-05-01 13:51 56.10317 19.67858 33588 ft 493 kts 148°
2026-05-01 13:51 56.07325 19.70903 32852 ft 495 kts 147°
2026-05-01 13:51 56.04328 19.73961 32116 ft 497 kts 148°
2026-05-01 13:52 56.01317 19.77003 31364 ft 499 kts 148°
2026-05-01 13:52 55.98424 19.79891 30633 ft 501 kts 148°
2026-05-01 13:52 55.95366 19.82912 29771 ft 503 kts 148°
2026-05-01 13:52 55.92304 19.85913 29112 ft 500 kts 148°
2026-05-01 13:53 55.89267 19.88873 28531 ft 496 kts 148°
2026-05-01 13:53 55.83249 19.94721 27352 ft 489 kts 149°
2026-05-01 13:53 55.80271 19.97610 26787 ft 486 kts 148°
2026-05-01 13:54 55.77311 20.00477 26202 ft 483 kts 148°
2026-05-01 13:54 55.74368 20.03326 25644 ft 480 kts 148°
2026-05-01 13:54 55.71443 20.06152 25077 ft 478 kts 148°
2026-05-01 13:54 55.68532 20.08960 24510 ft 475 kts 148°
2026-05-01 13:55 55.65639 20.11747 23979 ft 473 kts 148°
2026-05-01 13:55 55.62752 20.14523 23348 ft 470 kts 148°
2026-05-01 13:55 55.59889 20.17269 22777 ft 467 kts 148°
2026-05-01 13:55 55.57045 20.19992 22228 ft 463 kts 148°
2026-05-01 13:56 55.54219 20.22695 21682 ft 463 kts 148°
2026-05-01 13:56 55.51366 20.25423 21116 ft 469 kts 148°
2026-05-01 13:56 55.48527 20.28277 20497 ft 468 kts 143°
2026-05-01 13:56 55.45994 20.31791 19929 ft 461 kts 134°
2026-05-01 13:57 55.43628 20.35565 19355 ft 456 kts 133°
2026-05-01 13:57 55.42101 20.38054 19072 ft 451 kts 133°
2026-05-01 13:57 55.39045 20.43061 18192 ft 448 kts 133°
2026-05-01 13:57 55.36769 20.46803 17495 ft 447 kts 133°
2026-05-01 13:58 55.34541 20.50459 16901 ft 442 kts 133°
2026-05-01 13:58 55.32270 20.54196 16178 ft 440 kts 132°
2026-05-01 13:58 55.30298 20.58134 15550 ft 432 kts 122°
2026-05-01 13:58 55.28574 20.62402 14939 ft 427 kts 120°
2026-05-01 13:59 55.26896 20.66677 14324 ft 424 kts 120°
2026-05-01 13:59 55.25224 20.70921 13672 ft 421 kts 120°
2026-05-01 13:59 55.23566 20.75108 13039 ft 416 kts 121°
2026-05-01 13:59 55.21920 20.79245 12420 ft 411 kts 121°
2026-05-01 14:00 55.20295 20.83318 11979 ft 403 kts 121°
2026-05-01 14:00 55.18714 20.87264 11710 ft 390 kts 121°
2026-05-01 14:00 55.17172 20.91114 11287 ft 382 kts 121°
2026-05-01 14:00 55.15950 20.95155 10787 ft 372 kts 108°
2026-05-01 14:01 55.15029 20.99294 10549 ft 359 kts 107°
2026-05-01 14:01 55.14151 21.03290 10361 ft 346 kts 107°
2026-05-01 14:01 55.13293 21.07116 10303 ft 330 kts 107°
2026-05-01 14:01 55.12095 21.10437 10325 ft 320 kts 131°
2026-05-01 14:02 55.10434 21.12945 10178 ft 313 kts 138°
2026-05-01 14:02 55.08723 21.15252 9815 ft 310 kts 139°
2026-05-01 14:02 55.07020 21.17532 9450 ft 307 kts 139°
2026-05-01 14:02 55.05331 21.19779 9089 ft 305 kts 142°
2026-05-01 14:03 55.03377 21.21201 8698 ft 307 kts 167°
2026-05-01 14:03 55.01277 21.21786 8366 ft 304 kts 171°
2026-05-01 14:03 54.99192 21.22268 8064 ft 300 kts 171°
2026-05-01 14:03 54.97146 21.22513 7860 ft 291 kts 186°
2026-05-01 14:04 54.95314 21.21305 7669 ft 278 kts 219°
2026-05-01 14:04 54.94157 21.18738 7299 ft 268 kts 253°
2026-05-01 14:04 54.94004 21.15626 6946 ft 256 kts 287°
2026-05-01 14:04 54.94372 21.13713 6742 ft 251 kts 297°
2026-05-01 14:05 54.95024 21.09813 6386 ft 248 kts 284°
2026-05-01 14:05 54.95321 21.06893 6166 ft 242 kts 284°
2026-05-01 14:05 54.95848 21.04190 5907 ft 233 kts 306°
2026-05-01 14:05 54.96849 21.02024 5604 ft 228 kts 316°
2026-05-01 14:06 54.97954 21.00046 5304 ft 227 kts 317°
2026-05-01 14:06 54.99065 20.98102 4994 ft 226 kts 317°
2026-05-01 14:06 54.99934 20.95826 4654 ft 230 kts 291°
2026-05-01 14:06 55.00027 20.93052 4345 ft 234 kts 261°
2026-05-01 14:07 54.99348 20.90487 4046 ft 238 kts 232°
2026-05-01 14:07 54.98104 20.88590 3778 ft 237 kts 221°
2026-05-01 14:07 54.96876 20.86683 3500 ft 235 kts 226°
2026-05-01 14:08 54.94919 20.82373 3052 ft 217 kts 251°
2026-05-01 14:08 54.94562 20.80794 2942 ft 207 kts 252°
2026-05-01 14:08 54.94025 20.78581 2828 ft 189 kts 248°
2026-05-01 14:08 54.93490 20.76612 2764 ft 172 kts 249°
2026-05-01 14:09 54.93259 20.74676 2539 ft 162 kts 279°
2026-05-01 14:09 54.93789 20.73017 2199 ft 160 kts 320°
2026-05-01 14:09 54.94855 20.72501 2016 ft 169 kts
2026-05-01 14:09 54.95908 20.73458 1988 ft 180 kts 44°
2026-05-01 14:10 54.96388 20.75466 1988 ft 186 kts 84°
2026-05-01 14:10 54.96069 20.77644 1879 ft 191 kts 121°
2026-05-01 14:10 54.95097 20.79037 1696 ft 175 kts 164°
2026-05-01 14:10 54.93949 20.78967 1695 ft 164 kts 208°
2026-05-01 14:11 54.93121 20.77714 1719 ft 154 kts 237°
2026-05-01 14:11 54.92529 20.74362 1409 ft 141 kts 265°
2026-05-01 14:11 54.92375 20.72705 1148 ft 137 kts 258°
2026-05-01 14:12 54.92085 20.71168 1033 ft 137 kts 250°
2026-05-01 14:12 54.91676 20.69669 919 ft 139 kts 246°
2026-05-01 14:12 54.91333 20.68254 707 ft 138 kts 252°
2026-05-01 14:12 54.91069 20.67150 600 ft 137 kts 248°
2026-05-01 14:13 54.90650 20.65662 437 ft 137 kts 247°
2026-05-01 14:13 54.90269 20.64130 282 ft 139 kts 251°
2026-05-01 14:13 54.89875 20.62614 125 ft 139 kts 248°
2026-05-01 14:13 54.89486 20.61097 28 ft 131 kts 245°
2026-05-01 14:14 54.89187 20.59941 27 ft 82 kts 246°
2026-05-01 14:14 54.89011 20.59289 31 ft 43 kts 239°
2026-05-01 14:14 54.88827 20.59042 32 ft 20 kts 206°
2026-05-01 14:14 54.88725 20.58932 32 ft 14 kts 225°
2026-05-01 14:15 54.88686 20.58811 32 ft 11 kts 249°
2026-05-01 14:15 54.88661 20.58760 33 ft 2 kts 182°
2026-05-01 14:15 54.88630 20.58767 32 ft 6 kts 168°
2026-05-01 14:15 54.88581 20.58798 33 ft 9 kts 156°
2026-05-01 14:16 54.88520 20.58799 33 ft 8 kts 214°
2026-05-01 14:16 54.88499 20.58717 33 ft 8 kts 248°
2026-05-01 14:16 54.88472 20.58612 33 ft 11 kts 246°
2026-05-01 14:16 54.88439 20.58485 33 ft 12 kts 245°
2026-05-01 14:17 54.88396 20.58354 33 ft 10 kts 239°
2026-05-01 14:17 54.88386 20.58324 33 ft 0 kts 239°
2026-05-01 14:17 54.88379 20.58306 33 ft 4 kts 239°
2026-05-01 14:18 54.88359 20.58274 33 ft 4 kts 202°
2026-05-01 14:18 54.88342 20.58280 33 ft 1 kts 146°
2026-05-01 14:18 54.88341 20.58283 33 ft 1 kts 138°
2026-05-01 14:18 54.88339 20.58291 33 ft 1 kts 121°
2026-05-01 14:19 54.88327 20.58335 33 ft 4 kts 118°
2026-05-01 14:19 54.88323 20.58344 33 ft 0 kts 122°